SCP
-0 0 -0 -0 -0 -0 -0 -0 -0 -0 -0 -0 -0 -0 -0 -0 -0 -0 -0 -0 -0 -0 -0 -0 -0 -0 -0 -0 -0 -0 -0 -0 -0 -0 0 0 0 0 0 0 0 0 0
-0 -0 0 -0 -0 -0 -0 -0 -0 -0 -0 -0 -0 -0 -0 -0 -0 -0 -0 -0 -0 -0 -0 -0 -0 -0 -0 -0 -0 -0 -0 -0 -0 0 0 -0 0 -0 0 0 0 0 0
-0 -0 -0 -0 -0 -0 -0 -0 -0 -0 -0 -0 -0 -0 -0 -0 -0 -0 -0 -0 -0 -0 -0 -0 -0 -0 -0 -0 -0 -0 -0 -0 0 0 0 -0 0 -0 0 0 0 0 0
-0 -0 0 -0 -0 -0 -0 -0 -0 -0 -0 -0 -0 -0 -0 -0 -0 -0 -0 -0 -0 -0 -0 -0 -0 -0 -0 -0 -0 -0 -0 0 0 0 -0 -0 -0 0 0 0 0 0 0
-0 -0 -0 -0 -0 -0 -0 -0 -0 -0 -0 -0 -0 -0 -0 -0 -0 -0 -0 -0 -0 -0 -0 -0 -0 -0 -0 -0 -0 -0 -0 0 0 -0 -0 -0 -0 0 0 0 0 0 0
-0 -0 -0 -0 -0 -0 -0 -0 -0 -0 -0 -0 -0 -0 -0 -0 -0 -0 0 0 -0 -0 -0 -0 -0 -0 -0 -0 -0 -0 0 0 0 -0 -0 -0 -0 0 0 0 0 0 0
-0 -0 -0 -0 -0 -0 -0 -0 -0 -0 -0 -0 -0 -0 -0 -0 -0 -0 0 0 0 -0 -0 -0 -0 -0 -0 -0 -0 0 -0 0 0 0 0 0 -0 0 0 0 0 0 0
0 -0 -0 -0 -0 -0 -0 -0 0 -0 -0 -0 -0 -0 -0 -0 -0 -0 -0 0 -0 -0 -0 -0 -0 0 0 0 0 0 0 0 0 0 0 0 -0 0 0 0 0 0 0
0 0 0 -0 0 0 0 -0 -0 0 -0 -0 -0 -0 -0 -0 -0 -0 0 0 0 -0 0 0 0 0 0 0 0 0 0 0 0 0 0 0 0 0 0 0 0 0 0
0 0 0 0 -0 0 0 0 -0 0 -0 0 0 0 -0 -0 -0 -0 0 0 0 0 0 0 0 0 0 0 0 0 0 0 0 0 0 0 0 0 0 0 0 0 0
0 0 0 0 0 -0 0 0 0 0 0 0 0 0 0 0 0 0 0 0 0 0 0 0 0 0 0 0 0 0 0 0 0 0 0 0 0 0 0 0 0 0 0
-0 -0 0 0 0 0 -0 0 0 0 0 0 0 0 0 0 0 0 0 0 0 0 0 0 0 0 0 0 0 0 0 0 0 0 0 0 0 0 0 0 0 0 0
-0 0 -0 -0 0 0 0 0 0 0 0 0 0 0 0 0 0 0 0 0 0 0 0 0 0 0 0 0 0 0 0 0 0 0 0 0 0 0 0 0 0 0 0
0 -0 -0 -0 -0 0 0 0 0 0 0 0 0 0 0 0 0 0 0 0 0 0 0 0 0 0 0 0 0 0 0 0 0 0 0 0 0 0 0 0 0 0 0
0 0 0 0 -0 -0 -0 0 0 0 0 0 0 0 0 0 0 0 0 0 0 0 0 0 0 0 0 0 0 0 0 0 0 0 0 0 0 0 0 0 0 0 0
0 0 0 0 0 0 -0 0 0 0 0 0 0 0 0 0 0 0 0 0 0 0 0 0 0 0 0 0 0 0 0 0 0 0 0 0 0 0 0 0 0 0 0
0 0 0 0 0 0 0 0 0 0 0 0 0 0 0 0 0 0 0 0 0 0 0 0 0 0 0 0 0 0 0 0 0 0 0 0 0 0 0 0 0 0 0
0 0 0 0 0 0 0 0 0 0 0 0 0 0 0 0 0 0 0 0 0 0 0 0 0 0 0 0 0 0 0 0 0 0 0 0 0 0 0 0 0 0 0
0 0 0 0 0 0 0 0 0 0 0 0 0 0 0 0 0 0 0 0 0 0 0 0 0 0 0 0 0 0 0 0 0 0 0 0 0 0 0 0 0 0 0
0 0 0 0 0 0 0 0 0 0 0 0 0 0 0 0 0 0 0 0 0 0 0 0 0 0 0 0 0 0 0 0 0 0 0 0 0 0 0 0 0 0 0
0 0 0 0 0 0 0 0 0 0 0 0 0 0 0 0 0 0 0 0 0 0 0 0 0 0 0 0 0 0 0 0 0 0 0 0 0 0 0 0 0 0 0
0 0 0 0 0 0 0 0 0 0 0 0 0 0 0 0 0 0 0 0 0 0 0 0 0 0 0 0 0 0 0 0 0 0 0 0 0 0 0 0 0 0 0
0 0 0 0 0 0 0 0 0 0 0 0 0 0 0 0 0 0 0 0 0 0 0 0 0 0 0 0 0 0 0 0 0 0 0 0 0 0 0 0 0 0 0
0 0 0 0 0 0 0 0 0 0 0 0 0 0 0 0 0 0 0 0 0 0 0 0 0 0 0 0 0 0 0 0 0 0 0 0 0 0 0 0 0 0 0
0 0 0 0 0 0 0 0 0 0 0 0 0 0 0 0 0 0 0 0 0 0 0 0 0 0 0 0 0 0 0 0 0 0 0 0 0 0 0 0 0 0 0
0 0 0 0 0 0 0 0 0 0 0 0 0 0 0 0 0 0 0 0 0 0 0 0 0 0 0 0 0 0 0 0 0 0 0 0 0 0 0 0 0 0 0
Wind_Speed_500mb
24 23 22 23 24 26 23 19 15 14 16 16 16 18 18 17 18 19 19 17 12 32 30 31 31 31 32 29 30 30 29 28 34 29 28 30 31 32 31 33 31 32 31
21 25 26 24 27 30 21 15 10 8 15 15 14 15 14 15 16 18 18 22 19 25 29 30 29 28 27 27 29 30 31 30 33 32 31 35 31 29 27 26 26 26 24
24 27 26 27 31 27 19 14 8 8 13 15 18 16 15 18 17 16 23 22 24 23 25 28 21 23 26 21 23 26 28 29 30 31 31 30 34 28 26 26 28 27 26
23 25 27 27 26 19 17 12 10 10 14 20 22 20 19 22 21 20 25 24 21 24 25 21 18 20 24 24 21 23 28 29 34 33 32 31 23 24 21 20 24 27 27
26 23 20 26 21 17 12 11 11 12 12 17 24 18 18 18 20 22 23 23 22 20 20 16 14 16 19 20 21 21 25 25 26 24 24 24 27 18 18 19 21 21 20
25 26 23 22 21 18 12 10 9 13 14 12 19 21 17 17 16 18 20 20 17 17 15 14 11 13 15 17 18 20 23 21 18 20 20 17 17 19 17 17 18 17 12
23 25 26 26 21 18 13 11 8 13 18 18 20 22 20 16 18 16 17 15 16 14 13 12 8 9 10 11 13 15 16 16 17 17 16 17 21 18 18 13 16 12 9
17 23 24 27 25 19 15 13 11 11 15 21 19 21 24 15 18 17 16 13 14 14 12 10 6 5 6 5 7 9 10 10 12 14 15 15 16 18 14 13 11 6 9
16 20 25 27 28 24 19 16 11 11 15 20 18 14 24 19 15 17 18 16 13 12 12 10 7 4 2 2 2 4 6 6 8 10 11 12 13 15 14 12 9 6 5
18 19 23 28 29 29 24 19 15 11 16 22 20 18 19 15 16 17 18 18 16 13 13 13 11 10 7 7 7 6 7 7 8 9 9 9 11 13 13 13 9 3 0
27 26 25 28 31 30 29 25 22 18 18 21 21 21 17 15 17 18 18 18 17 16 16 15 14 14 12 10 11 12 12 11 11 10 10 10 12 12 12 11 8 2 3
31 30 28 28 32 33 33 31 29 27 23 21 23 24 22 19 20 19 20 20 20 20 21 20 19 18 16 15 15 15 16 15 14 13 12 13 13 14 12 10 6 0 9
20 28 30 29 31 36 37 36 36 34 30 27 26 26 26 26 25 21 22 22 22 23 24 23 22 21 21 20 19 19 19 20 19 17 16 16 15 17 14 12 9 5 9
27 25 28 32 32 35 40 41 40 40 38 35 31 30 31 29 28 26 26 25 26 26 26 26 27 27 26 24 24 24 23 23 23 22 20 19 19 20 18 15 13 9 5
38 34 34 34 38 38 40 44 45 45 45 41 39 36 36 34 32 31 31 32 31 31 30 30 31 32 30 29 30 28 28 27 27 25 23 22 23 23 21 18 14 11 10
39 41 40 41 42 44 45 45 47 46 46 48 48 45 43 39 38 38 37 37 37 35 33 34 36 36 36 36 34 33 32 31 30 29 27 24 25 25 23 20 17 16 17
43 43 46 48 48 51 53 52 50 50 46 47 48 52 51 48 45 44 44 43 40 37 39 40 41 42 43 40 39 37 37 34 35 34 32 30 28 26 24 23 21 19 18
40 46 47 49 54 57 59 59 58 56 52 51 48 48 55 56 51 49 48 47 44 44 44 45 44 46 46 44 42 39 41 41 40 40 39 36 34 31 28 25 24 22 21
39 42 48 51 53 55 61 64 64 62 61 57 56 55 54 56 57 55 52 51 48 50 51 49 50 51 50 48 48 45 46 47 46 45 44 41 38 36 33 30 28 25 23
31 32 33 42 48 52 56 63 67 68 67 67 65 65 63 62 60 59 59 57 53 56 57 55 55 53 56 52 52 54 53 54 52 52 50 45 42 42 38 37 34 31 28
42 42 41 42 43 48 57 62 68 71 70 72 72 70 70 70 68 65 66 66 62 60 60 60 61 62 61 56 57 61 61 60 58 57 52 49 48 46 43 41 40 36 33
47 49 48 49 54 56 57 60 67 71 72 71 72 71 72 73 74 72 72 74 71 66 65 67 66 69 68 63 61 59 60 59 59 52 49 51 50 49 49 45 43 40 37
56 55 57 62 59 57 57 61 67 74 77 77 74 74 73 73 75 77 78 78 80 75 75 73 73 74 74 70 66 57 22 22 26 28 25 26 31 37 44 48 44 41 40
56 63 54 52 50 54 57 64 66 71 77 74 74 76 76 74 72 73 76 80 84 86 83 83 81 80 78 79 77 76 78 76 41 34 32 29 30 35 36 44 46 44 42
47 50 48 44 43 45 50 57 64 72 76 72 79 78 76 76 76 74 72 73 80 88 91 89 90 88 88 86 85 85 82 82 84 88 69 66 59 53 45 42 45 47 49
48 50 42 37 37 41 48 56 62 65 66 72 77 80 79 79 79 81 77 77 76 80 85 91 94 98 96 94 91 93 92 81 80 83 89 91 84 74 61 52 53 55 57
Wind_Direction_500mb
159 155 147 148 154 147 147 134 122 117 119 130 141 150 151 149 144 139 140 134 89 108 101 102 95 89 86 87 83 79 84 101 89 81 89 90 87 84 81 74 72 66 62
164 157 158 152 158 151 146 139 120 113 122 135 141 137 134 146 152 143 149 153 115 107 108 105 100 97 82 82 76 71 67 69 76 79 77 75 79 78 75 70 66 59 64
162 160 157 157 156 153 149 148 142 133 135 132 121 119 118 111 128 136 137 131 124 109 114 109 105 91 82 89 78 70 68 69 73 73 70 71 59 66 71 67 58 53 58
163 172 162 165 163 163 157 146 146 155 155 136 128 118 120 122 118 121 126 120 117 118 116 116 96 84 79 91 81 74 72 73 72 73 73 74 70 53 57 57 50 54 75
170 175 183 172 174 172 161 142 133 164 173 156 144 138 131 129 128 129 126 125 127 122 121 118 96 86 77 78 69 78 83 79 75 75 71 66 63 49 54 52 50 66 87
176 180 183 189 185 182 173 159 146 161 166 176 156 136 136 131 135 132 126 133 124 131 130 118 113 97 79 76 73 73 85 81 72 66 68 56 47 49 54 45 54 79 72
185 188 189 191 197 196 186 183 172 174 176 182 162 156 150 153 145 143 135 135 137 143 138 134 129 107 89 75 69 76 82 75 65 66 59 49 40 39 51 40 65 72 51
206 203 200 199 201 205 213 205 192 191 194 196 183 160 160 164 160 149 141 146 152 159 155 154 153 126 97 70 56 70 68 57 51 50 44 34 33 33 35 35 59 65 43
201 222 216 213 207 209 216 233 218 198 197 212 205 192 172 186 171 161 160 163 177 173 171 175 191 197 203 307 346 27 36 35 25 24 26 23 20 17 21 18 33 57 46
221 226 229 224 221 216 218 223 240 231 205 207 212 208 196 194 165 167 172 178 188 186 190 194 203 218 231 258 291 307 326 340 345 355 352 357 6 6 10 7 21 98 18
221 228 232 232 229 228 225 222 228 237 234 217 217 211 213 207 187 172 184 199 198 198 206 211 217 231 244 257 270 286 300 309 317 320 329 333 342 348 355 354 16 113 236
229 233 236 234 234 234 234 233 231 229 237 244 233 226 223 218 209 209 205 210 212 214 217 219 224 233 244 251 260 272 287 294 297 301 305 309 317 324 334 328 331 251 263
251 241 244 247 241 237 239 240 238 238 238 236 242 237 233 230 227 226 227 228 230 229 229 231 235 239 244 250 257 265 273 284 289 295 292 298 302 305 312 310 294 274 260
256 257 251 251 251 249 244 243 245 245 243 243 242 244 244 240 240 241 240 239 240 242 242 243 245 246 249 252 258 266 270 275 281 285 286 289 293 293 294 293 285 274 274
262 261 257 256 256 256 255 246 245 247 248 248 247 246 246 246 245 244 243 245 246 249 250 251 251 253 256 258 260 266 270 271 274 278 281 284 286 286 284 283 276 249 261
269 270 265 263 262 258 256 256 252 250 250 251 250 250 251 250 249 249 246 247 248 252 253 256 258 257 257 257 259 264 269 270 272 275 277 277 279 281 278 274 267 247 224
276 276 273 271 268 263 259 258 257 256 254 252 253 251 253 255 257 254 252 251 252 256 256 255 255 258 259 260 263 264 269 271 272 274 273 272 273 276 276 267 261 250 234
273 274 274 273 270 267 262 261 260 259 259 256 254 253 253 256 259 256 253 254 257 256 258 257 257 259 261 262 264 264 265 267 269 270 269 269 271 273 272 265 261 251 242
268 269 273 271 272 272 267 263 262 262 260 260 257 255 254 256 257 258 258 259 256 255 257 260 260 261 261 263 265 265 263 263 265 264 263 264 267 268 265 258 254 251 246
268 268 273 275 270 268 268 263 263 262 262 260 259 258 258 259 259 258 260 261 259 257 257 258 260 260 264 266 268 267 266 265 265 263 263 262 262 262 261 254 248 247 245
266 269 273 280 283 272 265 263 260 262 263 263 262 261 260 258 259 259 261 262 260 259 260 260 262 263 262 262 269 270 271 269 268 266 265 262 260 260 258 253 245 245 245
265 270 271 280 279 275 272 270 265 266 268 269 268 268 266 264 261 260 260 263 265 263 261 261 261 262 262 261 260 268 281 280 275 270 265 260 257 257 255 248 244 243 245
264 272 278 281 276 269 270 273 268 264 263 266 267 267 267 266 266 264 262 263 266 265 264 263 262 261 263 264 260 255 260 257 275 279 268 262 257 253 251 245 246 244 239
267 275 278 278 274 265 261 265 268 268 267 272 273 275 275 276 275 272 269 269 267 268 266 265 265 263 262 261 261 256 256 256 270 282 282 264 255 257 257 249 247 248 242
277 283 284 272 268 268 266 265 266 266 270 275 273 273 275 277 278 277 275 272 270 270 268 266 267 266 265 263 261 262 261 259 259 257 270 269 265 264 262 252 250 247 249
281 283 277 265 269 266 267 266 267 269 268 270 273 276 277 277 279 280 281 279 278 275 273 272 269 269 268 267 265 264 260 254 258 258 256 266 268 270 266 257 253 247 251
Wind_Speed_850mb
24 23 22 23 24 26 23 19 15 14 16 16 16 18 18 17 18 19 19 17 12 32 30 31 31 31 32 29 30 30 29 28 34 29 28 30 31 32 31 33 31 32 31
21 25 26 24 27 30 21 15 10 8 15 15 14 15 14 15 16 18 18 22 19 25 29 30 29 28 27 27 29 30 31 30 33 32 31 35 31 29 27 26 26 26 24
24 27 26 27 31 27 19 14 8 8 13 15 18 16 15 18 17 16 23 22 24 23 25 28 21 23 26 21 23 26 28 29 30 31 31 30 34 28 26 26 28 27 26
23 25 27 27 26 19 17 12 10 10 14 20 22 20 19 22 21 20 25 24 21 24 25 21 18 20 24 24 21 23 28 29 34 33 32 31 23 24 21 20 24 27 27
26 23 20 26 21 17 12 11 11 12 12 17 24 18 18 18 20 22 23 23 22 20 20 16 14 16 19 20 21 21 25 25 26 24 24 24 27 18 18 19 21 21 20
25 26 23 22 21 18 12 10 9 13 14 12 19 21 17 17 16 18 20 20 17 17 15 14 11 13 15 17 18 20 23 21 18 20 20 17 17 19 17 17 18 17 12
23 25 26 26 21 18 13 11 8 13 18 18 20 22 20 16 18 16 17 15 16 14 13 12 8 9 10 11 13 15 16 16 17 17 16 17 21 18 18 13 16 12 9
17 23 24 27 25 19 15 13 11 11 15 21 19 21 24 15 18 17 16 13 14 14 12 10 6 5 6 5 7 9 10 10 12 14 15 15 16 18 14 13 11 6 9
16 20 25 27 28 24 19 16 11 11 15 20 18 14 24 19 15 17 18 16 13 12 12 10 7 4 2 2 2 4 6 6 8 10 11 12 13 15 14 12 9 6 5
18 19 23 28 29 29 24 19 15 11 16 22 20 18 19 15 16 17 18 18 16 13 13 13 11 10 7 7 7 6 7 7 8 9 9 9 11 13 13 13 9 3 0
27 26 25 28 31 30 29 25 22 18 18 21 21 21 17 15 17 18 18 18 17 16 16 15 14 14 12 10 11 12 12 11 11 10 10 10 12 12 12 11 8 2 3
31 30 28 28 32 33 33 31 29 27 23 21 23 24 22 19 20 19 20 20 20 20 21 20 19 18 16 15 15 15 16 15 14 13 12 13 13 14 12 10 6 0 9
20 28 30 29 31 36 37 36 36 34 30 27 26 26 26 26 25 21 22 22 22 23 24 23 22 21 21 20 19 19 19 20 19 17 16 16 15 17 14 12 9 5 9
27 25 28 32 32 35 40 41 40 40 38 35 31 30 31 29 28 26 26 25 26 26 26 26 27 27 26 24 24 24 23 23 23 22 20 19 19 20 18 15 13 9 5
38 34 34 34 38 38 40 44 45 45 45 41 39 36 36 34 32 31 31 32 31 31 30 30 31 32 30 29 30 28 28 27 27 25 23 22 23 23 21 18 14 11 10
39 41 40 41 42 44 45 45 47 46 46 48 48 45 43 39 38 38 37 37 37 35 33 34 36 36 36 36 34 33 32 31 30 29 27 24 25 25 23 20 17 16 17
43 43 46 48 48 51 53 52 50 50 46 47 48 52 51 48 45 44 44 43 40 37 39 40 41 42 43 40 39 37 37 34 35 34 32 30 28 26 24 23 21 19 18
40 46 47 49 54 57 59 59 58 56 52 51 48 48 55 56 51 49 48 47 44 44 44 45 44 46 46 44 42 39 41 41 40 40 39 36 34 31 28 25 24 22 21
39 42 48 51 53 55 61 64 64 62 61 57 56 55 54 56 57 55 52 51 48 50 51 49 50 51 50 48 48 45 46 47 46 45 44 41 38 36 33 30 28 25 23
31 32 33 42 48 52 56 63 67 68 67 67 65 65 63 62 60 59 59 57 53 56 57 55 55 53 56 52 52 54 53 54 52 52 50 45 42 42 38 37 34 31 28
42 42 41 42 43 48 57 62 68 71 70 72 72 70 70 70 68 65 66 66 62 60 60 60 61 62 61 56 57 61 61 60 58 57 52 49 48 46 43 41 40 36 33
47 49 48 49 54 56 57 60 67 71 72 71 72 71 72 73 74 72 72 74 71 66 65 67 66 69 68 63 61 59 60 59 59 52 49 51 50 49 49 45 43 40 37
56 55 57 62 59 57 57 61 67 74 77 77 74 74 73 73 75 77 78 78 80 75 75 73 73 74 74 70 66 57 22 22 26 28 25 26 31 37 44 48 44 41 40
56 63 54 52 50 54 57 64 66 71 77 74 74 76 76 74 72 73 76 80 84 86 83 83 81 80 78 79 77 76 78 76 41 34 32 29 30 35 36 44 46 44 42
47 50 48 44 43 45 50 57 64 72 76 72 79 78 76 76 76 74 72 73 80 88 91 89 90 88 88 86 85 85 82 82 84 88 69 66 59 53 45 42 45 47 49
48 50 42 37 37 41 48 56 62 65 66 72 77 80 79 79 79 81 77 77 76 80 85 91 94 98 96 94 91 93 92 81 80 83 89 91 84 74 61 52 53 55 57
Wind_Direction_850mb
159 155 147 148 154 147 147 134 122 117 119 130 141 150 151 149 144 139 140 134 89 108 101 102 95 89 86 87 83 79 84 101 89 81 89 90 87 84 81 74 72 66 62
164 157 158 152 158 151 146 139 120 113 122 135 141 137 134 146 152 143 149 153 115 107 108 105 100 97 82 82 76 71 67 69 76 79 77 75 79 78 75 70 66 59 64
162 160 157 157 156 153 149 148 142 133 135 132 121 119 118 111 128 136 137 131 124 109 114 109 105 91 82 89 78 70 68 69 73 73 70 71 59 66 71 67 58 53 58
163 172 162 165 163 163 157 146 146 155 155 136 128 118 120 122 118 121 126 120 117 118 116 116 96 84 79 91 81 74 72 73 72 73 73 74 70 53 57 57 50 54 75
170 175 183 172 174 172 161 142 133 164 173 156 144 138 131 129 128 129 126 125 127 122 121 118 96 86 77 78 69 78 83 79 75 75 71 66 63 49 54 52 50 66 87
176 180 183 189 185 182 173 159 146 161 166 176 156 136 136 131 135 132 126 133 124 131 130 118 113 97 79 76 73 73 85 81 72 66 68 56 47 49 54 45 54 79 72
185 188 189 191 197 196 186 183 172 174 176 182 162 156 150 153 145 143 135 135 137 143 138 134 129 107 89 75 69 76 82 75 65 66 59 49 40 39 51 40 65 72 51
206 203 200 199 201 205 213 205 192 191 194 196 183 160 160 164 160 149 141 146 152 159 155 154 153 126 97 70 56 70 68 57 51 50 44 34 33 33 35 35 59 65 43
201 222 216 213 207 209 216 233 218 198 197 212 205 192 172 186 171 161 160 163 177 173 171 175 191 197 203 307 346 27 36 35 25 24 26 23 20 17 21 18 33 57 46
221 226 229 224 221 216 218 223 240 231 205 207 212 208 196 194 165 167 172 178 188 186 190 194 203 218 231 258 291 307 326 340 345 355 352 357 6 6 10 7 21 98 18
221 228 232 232 229 228 225 222 228 237 234 217 217 211 213 207 187 172 184 199 198 198 206 211 217 231 244 257 270 286 300 309 317 320 329 333 342 348 355 354 16 113 236
229 233 236 234 234 234 234 233 231 229 237 244 233 226 223 218 209 209 205 210 212 214 217 219 224 233 244 251 260 272 287 294 297 301 305 309 317 324 334 328 331 251 263
251 241 244 247 241 237 239 240 238 238 238 236 242 237 233 230 227 226 227 228 230 229 229 231 235 239 244 250 257 265 273 284 289 295 292 298 302 305 312 310 294 274 260
256 257 251 251 251 249 244 243 245 245 243 243 242 244 244 240 240 241 240 239 240 242 242 243 245 246 249 252 258 266 270 275 281 285 286 289 293 293 294 293 285 274 274
262 261 257 256 256 256 255 246 245 247 248 248 247 246 246 246 245 244 243 245 246 249 250 251 251 253 256 258 260 266 270 271 274 278 281 284 286 286 284 283 276 249 261
269 270 265 263 262 258 256 256 252 250 250 251 250 250 251 250 249 249 246 247 248 252 253 256 258 257 257 257 259 264 269 270 272 275 277 277 279 281 278 274 267 247 224
276 276 273 271 268 263 259 258 257 256 254 252 253 251 253 255 257 254 252 251 252 256 256 255 255 258 259 260 263 264 269 271 272 274 273 272 273 276 276 267 261 250 234
273 274 274 273 270 267 262 261 260 259 259 256 254 253 253 256 259 256 253 254 257 256 258 257 257 259 261 262 264 264 265 267 269 270 269 269 271 273 272 265 261 251 242
268 269 273 271 272 272 267 263 262 262 260 260 257 255 254 256 257 258 258 259 256 255 257 260 260 261 261 263 265 265 263 263 265 264 263 264 267 268 265 258 254 251 246
268 268 273 275 270 268 268 263 263 262 262 260 259 258 258 259 259 258 260 261 259 257 257 258 260 260 264 266 268 267 266 265 265 263 263 262 262 262 261 254 248 247 245
266 269 273 280 283 272 265 263 260 262 263 263 262 261 260 258 259 259 261 262 260 259 260 260 262 263 262 262 269 270 271 269 268 266 265 262 260 260 258 253 245 245 245
265 270 271 280 279 275 272 270 265 266 268 269 268 268 266 264 261 260 260 263 265 263 261 261 261 262 262 261 260 268 281 280 275 270 265 260 257 257 255 248 244 243 245
264 272 278 281 276 269 270 273 268 264 263 266 267 267 267 266 266 264 262 263 266 265 264 263 262 261 263 264 260 255 260 257 275 279 268 262 257 253 251 245 246 244 239
267 275 278 278 274 265 261 265 268 268 267 272 273 275 275 276 275 272 269 269 267 268 266 265 265 263 262 261 261 256 256 256 270 282 282 264 255 257 257 249 247 248 242
277 283 284 272 268 268 266 265 266 266 270 275 273 273 275 277 278 277 275 272 270 270 268 266 267 266 265 263 261 262 261 259 259 257 270 269 265 264 262 252 250 247 249
281 283 277 265 269 266 267 266 267 269 268 270 273 276 277 277 279 280 281 279 278 275 273 272 269 269 268 267 265 264 260 254 258 258 256 266 268 270 266 257 253 247 251